Regional Weather Roundup
Issued by NWS Charleston, SC

Current Version | Previous Version | Text Only | Print | Product List | Glossary Off
Versions: 1 2 3 4 5 6 7 8 9 10 11 12 13 14 15 16 17 18 19 20 21 22 23 24 25 26 27 28 29 30 31 32 33 34 35 36 37 38 39 40 41 42 43 44 45 46 47 48 49 50
000 ASUS42 KCHS 011510 RWRCHS REGIONAL WEATHER ROUNDUP NATIONAL WEATHER SERVICE CHARLESTON SC 1100 AM EDT WED OCT 01 2014 NOTE: "FAIR" INDICATES FEW OR NO CLOUDS BELOW 12,000 FEET WITH NO SIGNIFICANT WEATHER AND/OR OBSTRUCTIONS TO VISIBILITY. NOT ALL STATIONS ARE QUALITY CONTROLLED BY THE NATIONAL WEATHER SERVICE. USE DATA WITH CAUTION...ESPECIALLY DEWPOINT OBSERVATIONS. SCZ027-030-031-034>040-042>050-011600- ...SOUTH CAROLINA... CITY SKY/WX TMP DP RH WIND PRES REMARKS N CHARLESTON MOSUNNY 80 66 62 NE6 30.00R WATERFRONT PRK NOT AVBL FORT JOHNSON NOT AVBL MOUNT PLEASANT FAIR 79 68 69 CALM 30.00R JOHNS ISLAND N/A 79 75 89 CALM 30.01R PINOPOLIS N/A 75 66 73 NE2 29.92F MONCKS CORNER FAIR 77 68 73 N3 30.01R SUMMERVILLE FAIR 77 68 73 N3 30.02R BEAUFORT MCAS MOSUNNY 79 67 66 N6 30.01R BEAUFORT ARPT FAIR 77 68 73 NE3 30.00R HILTON HEAD IS SUNNY 75 66 73 N6 30.02R GEORGETOWN NOT AVBL WALTERBORO SUNNY 79 63 57 N5 30.02R ORANGEBURG SUNNY 80 63 55 VRB3 30.01R BARNWELL FAIR 79 66 65 N5 30.02R AIKEN FAIR 79 66 65 CALM 30.05S MANNING FAIR 77 70 78 N3 30.02R KINGSTREE NOT AVBL COLUMBIA MOSUNNY 80 64 58 CALM 30.01R SUMTER SUNNY 76 63 63 NE2 30.00R FLORENCE SUNNY 74 66 76 E6 30.02R MYRTLE BEACH SUNNY 75 64 69 NE9 30.01R N MYRTLE BEACH SUNNY 76 64 66 E6 30.01R $$ GAZ063-065-086>088-099>101-113>116-118-119-134-136>141-150-011600- ...GEORGIA... CITY SKY/WX TMP DP RH WIND PRES REMARKS SAVANNAH ARPT MOSUNNY 81 65 58 N6 30.00 HUNTER AAF SUNNY 80 67 65 NE6 29.98R FORT STEWART SUNNY 79 65 62 N1 29.99R STATESBORO NOT AVBL SYLVANIA SUNNY 81 69 67 CALM 30.02S CLAXTON FAIR 81 68 65 CALM 30.00S THOMSON SUNNY 77 71 80 MISG 30.06S AUGUSTA-BUSH SUNNY 78 65 63 NE3 30.01R AUGUSTA-DANIEL SUNNY 78 64 61 N7 30.02S SWAINSBORO FAIR 81 70 69 CALM 30.02R VIDALIA SUNNY 79 68 69 NE3 30.01S ALMA SUNNY 79 66 64 VRB5 30.00R WAYCROSS CLOUDY 77 73 87 NE3 30.00S JESUP FAIR 82 72 69 CALM 30.00S BRUNSWICK CLOUDY 77 70 78 CALM 30.00S SAINT SIMONS CLOUDY 75 68 78 N6 29.99R $$ SCZ027-028-034-036>038-045-046-048>050-GAZ119-141-011600- ...LAKE AND SUPPLEMENTAL COASTAL OBSERVATIONS... STATION/POSITION TIME TEMP WIND PRES WAVE SWELL AIR SEA DIR/SP/G HT/PER HT/PER/DIR (UTC) (F) (DEG/KT/KT) (MB) (FT/S) (FT/S/D) UPR LAKE MARION NOT AVBL WINYAH BAY 1400 73 70/ 3 1015.0S LAKE MURRAY 1400 78 CALM / 3 1015.6S ACE BASIN NERRS 1400 73 20/ 2 1015.0S FORT PULASKI 1500 76 20/ 6/ 7 1016.1R SAPELO ISLAND NOT AVBL $$ ANZ835-935-AMZ111-154-330-350-352-354-374-450-454-472-011600- ...C-MAN AND BUOY OBSERVATIONS... STATION/POSITION TIME TEMP WIND PRES WAVE SWELL AIR SEA DIR/SP/G HT/PER HT/PER/DIR (UTC) (F) (DEG/KT/KT) (MB) (FT/S) (FT/S/D) FOLLY BEACH CMAN 1500 75 60/ 3/ 4 1016.5R BUOY 41004 1500 77 81 20/ 10/ 12 1014.9R 3/ 6 2/ 6 BUOY 41008 1500 75 79 30/ 8/ 10 1015.5R 3/ 6 2/ 80/ 6 5E ST. MARYS GA 1500 79 N/A 2/ 7 FRYING PAN BUOY NOT AVBL BUOY 41025 1500 72 360/ 16/ 19 1014.0R 3/ 7 2/ 40/ 7 CAPE LOOKOUT NC 1500 73 40/ 11/ 13 1015.2R BUOY 41002 1358 80 80 10/ 8/ 10 1012.6 3/ 8 3/ 60/ 8 BUOY 41010 1500 82 85 20/ 6/ 8 1014.0R 3/ 7 3/ 7 BUOY 41012 NOT AVBL ST AUGUSTINE FL 1500 80 60/ 8/ 9 1015.2R CAPERS NEARSHORE 1400 73 30/ 6/ 8 N/A FRIPP NEARSHORE NOT AVBL $$

USA.gov is the U.S. government's official web portal to all federal, state and local government web resources and services.